rn,nationality_code,nationality_name,nationality_name_eng,update_date,update_key
1,271,คอซอวอ,,2019-01-19 12:43:29,21
2,2,โปรตุเกส,PORTUGUESE,2019-01-19 12:43:29,1383
3,3,ดัตช์,NETHERLANDS,2019-01-19 12:43:29,1384
4,4,เยอรมัน,W. GERMANY,2019-01-19 12:43:29,1385
5,5,ฝรั่งเศส,FRANCE,2019-01-19 12:43:29,1386
6,6,เดนมาร์ก,DENMARK,2019-01-19 12:43:29,1387
7,7,สวีเดน,SWEDEN,2019-01-19 12:43:29,1388
8,8,สวิส,Swiss,2019-01-19 12:43:29,1389
9,9,อิตาลี,ITALY,2019-01-19 12:43:29,1390
10,10,นอร์เวย์,NORWAY,2019-01-19 12:43:29,1391
11,11,ออสเตรีย,AUSTRIA,2019-01-19 12:43:29,1392
12,12,ไอริช,IRISH,2019-01-19 12:43:29,1393
13,13,ฟินแลนด์,FINLAND,2019-01-19 12:43:29,1394
14,14,เบลเยียม,BELGIAN,2019-01-19 12:43:29,1395
15,15,สเปน,SPAIN,2019-01-19 12:43:29,1396
16,16,รัสเซีย,U.S.S.R.,2019-01-19 12:43:29,1397
17,17,โปแลนด์,POLAND,2019-01-19 12:43:29,1398
18,18,เช็ก,CZECH,2019-01-19 12:43:29,1399
19,19,ฮังการี,HUNGARY,2019-01-19 12:43:29,1400
20,20,กรีก,GREECE,2019-01-19 12:43:29,1401
21,21,ยูโกสลาฟ,YUGOSLAV,2019-01-19 12:43:29,1402
22,22,ลักเซมเบิร์ก,LUXEMBOURGE,2019-01-19 12:43:29,1403
23,23,วาติกัน,VATIGAN,2019-01-19 12:43:29,1404
24,24,มอลตา,MALTESE,2019-01-19 12:43:29,1405
25,25,ลีซู,,2019-01-19 12:43:29,1406
26,26,บัลแกเรีย,BULGARIA,2019-01-19 12:43:29,1407
27,27,โรมาเนีย,ROMANIAN,2019-01-19 12:43:29,1408
28,28,ไซปรัส,CYPRUS,2019-01-19 12:43:29,1409
29,29,อเมริกัน,U.S.A.,2019-01-19 12:43:29,1410
30,30,แคนาดา,CANADIAN,2019-01-19 12:43:29,1411
31,31,เม็กซิโก,MEXICO,2019-01-19 12:43:29,1412
32,32,คิวบา,CUBA,2019-01-19 12:43:29,1413
33,33,อาร์เจนตินา,ARGENTINA,2019-01-19 12:43:29,1414
34,34,บราซิล,BRAZIL,2019-01-19 12:43:29,1415
35,35,ชิลี,CHILE,2019-01-19 12:43:29,1416
36,36,อาข่า,,2019-01-19 12:43:29,1417
37,37,โคลัมเบีย,COLOMBIA,2019-01-19 12:43:29,1418
38,38,ลั๊ว,,2019-01-19 12:43:29,1419
39,39,เปรู,PERU,2019-01-19 12:43:29,1420
40,40,ปานามา,PANAMA,2019-01-19 12:43:29,1421
41,41,อุรุกวัย,URUGUAY,2019-01-19 12:43:29,1422
42,42,เวเนซุเอลา,VENEZUELA,2019-01-19 12:43:29,1423
43,43,เปอร์โตริโก,PUERTORICO,2019-01-19 12:43:29,1424
44,44,จีน,CHINA (MAIN LAND),2019-01-19 12:43:29,1425
45,45,อินเดีย,INDIA,2019-01-19 12:43:29,1426
46,46,เวียดนาม,VIETNAMCSE,2019-01-19 12:43:29,1427
47,47,ญี่ปุ่น,JAPAN,2019-01-19 12:43:29,1428
48,48,พม่า,of Myanmar,2019-01-19 12:43:29,1429
49,49,ฟิลิปปิน,PHILIPPINE,2019-01-19 12:43:29,1430
50,50,มาเลเซีย,MALASIA,2019-01-19 12:43:29,1431
51,51,อินโดนีเซีย,INDONESIA,2019-01-19 12:43:29,1432
52,52,ปากีสถาน,PAKISTAN,2019-01-19 12:43:29,1433
53,53,เกาหลีใต้,OF THE REPUBLIC OF KOREA,2019-01-19 12:43:29,1434
54,54,สิงคโปร์,SINGAPORE,2019-01-19 12:43:29,1435
55,55,เนปาล,NAPAL,2019-01-19 12:43:29,1436
56,56,ลาว,LAO,2019-01-19 12:43:29,1437
57,57,กัมพูชา,Cambodian,2019-01-19 12:43:29,1438
58,58,ศรีลังกา,SRI LANKA,2019-01-19 12:43:29,1439
59,59,ซาอุดีอาระเบีย,SAUDI ARABIAN,2019-01-19 12:43:29,1440
60,60,อิสราเอล,ISRAEL,2019-01-19 12:43:29,1441
61,61,เลบานอน,LEBANON,2019-01-19 12:43:29,1442
62,62,อิหร่าน,IRAN,2019-01-19 12:43:29,1443
63,63,ตุรกี,TURKEY,2019-01-19 12:43:29,1444
64,64,บังกลาเทศ,BANGLADESH,2019-01-19 12:43:29,1445
65,65,ถูกถอนสัญชาติ,,2019-01-19 12:43:29,1446
66,66,ซีเรีย,SYRIA,2019-01-19 12:43:29,1447
67,67,อิรัก,IRAQI,2019-01-19 12:43:29,1448
68,68,คูเวต,KUWAIT,2019-01-19 12:43:29,1449
69,69,บรูไน,BRUNEI,2019-01-19 12:43:29,1450
70,70,แอฟริกาใต้,SOUTH AFRICAN,2019-01-19 12:43:29,1451
71,71,กะเหรี่ยง,,2019-01-19 12:43:29,1452
72,72,ลาหู่,,2019-01-19 12:43:29,1453
73,73,เคนยา,KENYA,2019-01-19 12:43:29,1454
74,74,อียิปต์,EGYPT,2019-01-19 12:43:29,1455
75,75,เอธิโอเปีย,ETHIOPIA,2019-01-19 12:43:29,1456
76,76,ไนจีเรีย,NIGERIA,2019-01-19 12:43:29,1457
77,77,สหรัฐอาหรับเอมิเรตส์,UNITED ARAB EMIRATE,2019-01-19 12:43:29,1458
78,78,กินี,GUINEA,2019-01-19 12:43:29,1459
79,79,ออสเตรเลีย,AUSTRALIA,2019-01-19 12:43:29,1460
80,80,นิวซีแลนด์,NEW ZEALAND,2019-01-19 12:43:29,1461
81,81,ปาปัวนิวกินี,PAPUA NEW GUINEA,2019-01-19 12:43:29,1462
82,82,ม้ง,,2019-01-19 12:43:29,1463
83,83,เมี่ยน,,2019-01-19 12:43:29,1464
84,84,ชาวเขา,,2019-01-19 12:43:29,1465
85,86,จีนฮ่อ,-,2019-01-19 12:43:29,1466
86,87,จีน (อดีต ทจช.),,2019-01-19 12:43:29,1467
87,88,ผู้พลัดถิ่นสัญชาติพม่า,,2019-01-19 12:43:29,1468
88,89,ผู้อพยพเชื้อสายจากกัมพูชา,,2019-01-19 12:43:29,1469
89,90,ลาว (ลาวอพยพ),,2019-01-19 12:43:29,1470
90,91,เขมรอพยพ,,2019-01-19 12:43:29,1471
91,92,เวียตนามอพยพ,,2019-01-19 12:43:29,1472
92,93,รอให้สัญชาติไทย,,2019-01-19 12:43:29,1473
93,94,ไทย-อิสลาม,,2019-01-19 12:43:29,1474
94,95,ไทย-จีน,,2019-01-19 12:43:29,1475
95,96,ไร้สัญชาติ,-,2019-01-19 12:43:29,1476
96,97,อื่นๆ,,2019-01-19 12:43:29,1477
97,98,ไม่ได้สัญชาติไทย,,2019-01-19 12:43:29,1478
98,99,ไทย,THAILAND,2019-01-19 12:43:29,1479
99,100,อัฟกัน,AFGHAN,2019-01-19 12:43:29,1480
100,101,บาห์เรน,BAHRAINI,2019-01-19 12:43:29,1481
101,102,ภูฏาน,BAHRAIN,2019-01-19 12:43:29,1482
102,103,จอร์แดน,JORDAN,2019-01-19 12:43:29,1483
103,104,เกาหลีเหนือ,OF THE DEMOCRATIC OF KORE,2019-01-19 12:43:29,1484
104,105,มัลดีฟ,MALDIVIAN,2019-01-19 12:43:29,1485
105,106,มองโกเลีย,MONGOLIA,2019-01-19 12:43:29,1486
106,107,โอมาน,OMAN,2019-01-19 12:43:29,1487
107,108,กาตาร์,QATAR,2019-01-19 12:43:29,1488
108,109,เยเมน,YEMEN,2019-01-19 12:43:29,1489
109,110,เยเมน(ใต้),YEMEN (SOUTH),2019-01-19 12:43:29,1490
110,111,หมู่เกาะฟิจิ,FIJI,2019-01-19 12:43:29,1491
111,112,คิริบาส,KIRIBATI,2019-01-19 12:43:29,1492
112,113,นาอูรู,NAURU,2019-01-19 12:43:29,1493
113,114,หมู่เกาะโซโลมอน,SOLOMON ISLANDS,2019-01-19 12:43:29,1494
114,115,ตองก้า,TONGA,2019-01-19 12:43:29,1495
115,116,ตูวาลู,TUVALU,2019-01-19 12:43:29,1496
116,117,วานูอาตู,VANUATU,2019-01-19 12:43:29,1497
117,118,ซามัว,SAMOAN,2019-01-19 12:43:29,1498
118,119,แอลเบเนีย,ALBANIA,2019-01-19 12:43:29,1499
119,120,อันดอร์รา,ANDORRA,2019-01-19 12:43:29,1500
120,121,เยอรมนีตะวันออก,"GERMANY,EAST",2019-01-19 12:43:29,1501
121,122,ไอซ์แลนด์,ICELAND,2019-01-19 12:43:29,1502
122,123,ลิกเตนสไตน์,LIECHTENSTEIN,2019-01-19 12:43:29,1503
123,124,โมนาโก,MONACO,2019-01-19 12:43:29,1504
124,125,ซานมารีโน,SAN MARINO,2019-01-19 12:43:29,1505
125,126,บริติช,OF THE UNITED KINGDOM,2019-01-19 12:43:29,1506
126,127,แอลจีเรีย,ALGERIA,2019-01-19 12:43:29,1507
127,128,แองโกลา,ANGOLAN,2019-01-19 12:43:29,1508
128,129,เบนิน,BENIN,2019-01-19 12:43:29,1509
129,130,บอตสวานา,BOTSWANA,2019-01-19 12:43:29,1510
130,131,บูร์กินาฟาโซ,BURKINA FASO,2019-01-19 12:43:29,1511
131,132,บุรุนดี,BURUNDI,2019-01-19 12:43:29,1512
132,133,แคเมอรูน,CAMEROON,2019-01-19 12:43:29,1513
133,134,เคปเวิร์ด,CAPE VERDE,2019-01-19 12:43:29,1514
134,135,แอฟริกากลาง,CENTRAL AFRICAN REPUBLIC,2019-01-19 12:43:29,1515
135,136,ชาด,CHAD,2019-01-19 12:43:29,1516
136,137,คอโมโรส,COMOROS,2019-01-19 12:43:29,1517
137,138,คองโก,CONGO,2019-01-19 12:43:29,1518
138,139,ไอโวเรี่ยน,IVOIRIENNE,2019-01-19 12:43:29,1519
139,140,จิบูตี,DJIBOUTI,2019-01-19 12:43:29,1520
140,141,อิเควทอเรียลกินี,EQUATORIAL GUINEA,2019-01-19 12:43:29,1521
141,142,กาบอง,GABON,2019-01-19 12:43:29,1522
142,143,แกมเบีย,GAMBIA,2019-01-19 12:43:29,1523
143,144,กานา,GHANA,2019-01-19 12:43:29,1524
144,145,กินีบีสเซา,GUINEA BISSAU,2019-01-19 12:43:29,1525
145,146,เลโซโท,LESOTHO,2019-01-19 12:43:29,1526
146,147,ไลบีเรีย,LIBERIA,2019-01-19 12:43:29,1527
147,148,ลิเบีย,Libya,2019-01-19 12:43:29,1528
148,149,มาลากาซี,MALAGASY,2019-01-19 12:43:29,1529
149,150,มาลาวี,MALAWIAN,2019-01-19 12:43:29,1530
150,151,มาลี,MALI,2019-01-19 12:43:29,1531
151,152,มอริเตเนีย,MAURITANTA,2019-01-19 12:43:29,1532
152,153,มอริเชียส,MAURITIUS,2019-01-19 12:43:29,1533
153,154,โมร็อกโก,MOROCCAN,2019-01-19 12:43:29,1534
154,155,โมซัมบิก,MOZAMBIQUE,2019-01-19 12:43:29,1535
155,156,ไนเจอร์,NIGER,2019-01-19 12:43:29,1536
156,157,รวันดา,RWANDA,2019-01-19 12:43:29,1537
157,158,เซาโตเมและปรินซิเป,SAO TOME AND PRINCIPE,2019-01-19 12:43:29,1538
158,159,เซเนกัล,SENEGAL,2019-01-19 12:43:29,1539
159,160,เซเชลส์,SEYCHELLES,2019-01-19 12:43:29,1540
160,161,เซียร์ราลีโอน,SIERRA LEONE,2019-01-19 12:43:29,1541
161,162,โซมาลี,SOMALI,2019-01-19 12:43:29,1542
162,163,ซูดาน,SUDAN,2019-01-19 12:43:29,1543
163,164,สวาซี,SWAZI,2019-01-19 12:43:29,1544
164,165,แทนซาเนีย,TANZANIA,2019-01-19 12:43:29,1545
165,166,โตโก,TOGO,2019-01-19 12:43:29,1546
166,167,ตูนิเซีย,TUNISIAN,2019-01-19 12:43:29,1547
167,168,ยูกันดา,UGANDA,2019-01-19 12:43:29,1548
168,169,ซาอีร์,ZAIRE,2019-01-19 12:43:29,1549
169,170,แซมเบีย,ZAMBIA,2019-01-19 12:43:29,1550
170,171,ซิมบับเว,ZIMBABWE,2019-01-19 12:43:29,1551
171,172,แอนติกาและบาร์บูดา,OF ANTIGUA AND BARBUDA,2019-01-19 12:43:29,1552
172,173,บาฮามาส,BAHAMAS,2019-01-19 12:43:29,1553
173,174,บาร์เบโดส,BARBADOS,2019-01-19 12:43:29,1554
174,175,เบลิซ,BELIZE,2019-01-19 12:43:29,1555
175,176,คอสตาริกา,COSTA RICA,2019-01-19 12:43:29,1556
176,177,โดมินิกา,DOMINICA,2019-01-19 12:43:29,1557
177,178,โดมินิกัน,DOMINICAN,2019-01-19 12:43:29,1558
178,179,เอลซัลวาดอร์,"EL,SALVADOR",2019-01-19 12:43:29,1559
179,180,เกรเนดา,GRENADA,2019-01-19 12:43:29,1560
180,181,กัวเตมาลา,GUATEMALA,2019-01-19 12:43:29,1561
181,182,เฮติ,HAITI,2019-01-19 12:43:29,1562
182,183,ฮอนดูรัส,HONDURAS,2019-01-19 12:43:29,1563
183,184,จาเมกา,JAMAICA,2019-01-19 12:43:29,1564
184,185,นิการากัว,NICARAGUA,2019-01-19 12:43:29,1565
185,186,เซนต์คิตส์และเนวิส,OF SAINT KITTS AND NEVIS,2019-01-19 12:43:29,1566
186,187,เซนต์ลูเซีย,SAINT LUCIA,2019-01-19 12:43:29,1567
187,188,เซนต์วินเซนต์และเกรนาดีนส์,OF SAINT VINCENT AND THE,2019-01-19 12:43:29,1568
188,189,ตรินิแดดและโตเบโก,TRINDAD AND TOBAGO,2019-01-19 12:43:29,1569
189,190,โบลีเวีย,BOLIVIA,2019-01-19 12:43:29,1570
190,191,เอกวาดอร์,ECUADOR,2019-01-19 12:43:29,1571
191,192,กายอานา,GUYANA,2019-01-19 12:43:29,1572
192,193,ปารากวัย,PARAGUAY,2019-01-19 12:43:29,1573
193,194,ซูรินาเม,SURINAME,2019-01-19 12:43:29,1574
194,195,อาหรับ,ARAB,2019-01-19 12:43:29,1575
195,196,คะฉิ่น,,2019-01-19 12:43:29,1576
196,197,ว้า,,2019-01-19 12:43:29,1577
197,198,ไทยใหญ่,,2019-01-19 12:43:29,1578
198,199,ไทยลื้อ,THAILUE,2019-01-19 12:43:29,1579
199,200,ขมุ,KHAMU,2019-01-19 12:43:29,1580
200,201,ตองสู,TONGSU,2019-01-19 12:43:29,1581
201,202,เงี้ยว,NGIEW,2019-01-19 12:43:29,1582
202,203,ละว้า,LAWA,2019-01-19 12:43:29,1583
203,204,แม้ว,,2019-01-19 12:43:29,1584
204,205,ปะหร่อง,PALONG,2019-01-19 12:43:29,1585
205,206,ถิ่น,,2019-01-19 12:43:29,1586
206,207,ปะโอ,PAO,2019-01-19 12:43:29,1587
207,208,มอญ,,2019-01-19 12:43:29,1588
208,209,มลาบรี,,2019-01-19 12:43:29,1589
209,210,เฮาะ,NOT,2019-01-19 12:43:29,1590
210,211,สก๊อตแลนด์,NOT,2019-01-19 12:43:29,1591
211,212,จีน (จีนฮ่ออิสระ),,2019-01-19 12:43:29,1592
212,213,จีนอพยพ,NOT,2019-01-19 12:43:29,1593
213,214,จีน (จีนฮ่ออพยพ),,2019-01-19 12:43:29,1594
214,215,ไต้หวัน,TAIWAN,2019-01-19 12:43:29,1595
215,216,ยูเครน,UKRAINE,2019-01-19 12:43:29,1596
216,217,อาณานิคมอังกฤษ,BRITISH COLONY,2019-01-19 12:43:29,1597
217,218,ดูไบ,DUBAI,2019-01-19 12:43:29,1598
218,219,จีน(ฮ่องกง),HONGKONG,2019-01-19 12:43:29,1599
219,220,จีน(ไต้หวัน),CHINA (TAIWAN),2019-01-19 12:43:29,1600
220,221,โครเอเชีย,CROATIA,2019-01-19 12:43:29,1601
221,222,บริทิธ,BRITISH,2019-01-19 12:43:29,1602
222,223,คาซัค,KAZAKH,2019-01-19 12:43:29,1603
223,224,อาร์เมเนีย,ARMENIAN,2019-01-19 12:43:29,1604
224,225,อาเซอร์ไบจาน,AZERBAIJANI,2019-01-19 12:43:29,1605
225,226,จอร์เจีย,GEORGIAN,2019-01-19 12:43:29,1606
226,227,คีร์กีซ,KYRGYZ,2019-01-19 12:43:29,1607
227,228,ทาจิก,TAJIK,2019-01-19 12:43:29,1608
228,229,อุซเบก,UZBEK,2019-01-19 12:43:29,1609
229,230,หมู่เกาะมาร์แชลล์,OF THE MARSHALL ISLANDS,2019-01-19 12:43:29,1610
230,231,ไมโครนีเซีย,OF MICRONESIA,2019-01-19 12:43:29,1611
231,232,ปาเลา,OF PALAU,2019-01-19 12:43:29,1612
232,233,เบลารุส,BELARUSIAN,2019-01-19 12:43:29,1613
233,234,บอสเนียและเฮอร์เซโกวีนา,REPBLIC OF BOSNIA HERAEGO,2019-01-19 12:43:29,1614
234,235,เติร์กเมน,TURKMEN,2019-01-19 12:43:29,1615
235,236,เอสโตเนีย,ESTONIAN,2019-01-19 12:43:29,1616
236,237,ลัตเวีย,LATVIAN,2019-01-19 12:43:29,1617
237,238,ลิทัวเนีย,LITHUANIAN,2019-01-19 12:43:29,1618
238,239,มาซิโดเนีย,(OF) MACEDONIA,2019-01-19 12:43:29,1619
239,240,มอลโดวา,MOLDOVAN,2019-01-19 12:43:29,1620
240,241,สโลวัก,SLOVAK,2019-01-19 12:43:29,1621
241,242,สโลวีน,SLOVENE,2019-01-19 12:43:29,1622
242,243,เอริเทรีย,ERITREAN,2019-01-19 12:43:29,1623
243,244,นามิเบีย,NAMIBIAN,2019-01-19 12:43:29,1624
244,245,โบลิเวีย,BOLIVIAN,2019-01-19 12:43:29,1625
245,246,หมู่เกาะคุก,COOK ISLANDS,2019-01-19 12:43:29,1626
246,247,เนปาล (เนปาลอพยพ),,2019-01-19 12:43:29,1627
247,248,มอญ(ผู้พลัดถิ่นสัญชาติพม่า),,2019-01-19 12:43:29,1628
248,249,ไทยใหญ่(ผู้พลัดถิ่นสัญชาติพม่า,,2019-01-19 12:43:29,1629
249,250,เวียดนาม(ญวนอพยพ),,2019-01-19 12:43:29,1630
250,251,มาเลเชีย(อดีต จคม.),,2019-01-19 12:43:29,1631
251,252,จีน(อดีต จคม.),,2019-01-19 12:43:29,1632
252,253,สิงคโปร์(อดีต จคม.),,2019-01-19 12:43:29,1633
253,254,กะเหรี่ยง(ผู้หลบหนีเข้าเมือง),,2019-01-19 12:43:29,1634
254,255,มอญ(ผู้หลบหนีเข้าเมือง),,2019-01-19 12:43:29,1635
255,256,ไทยใหญ่(ผู้หลบหนีเข้าเมือง),,2019-01-19 12:43:29,1636
256,257,กัมพูชา(ผู้หลบหนีเข้าเมือง),,2019-01-19 12:43:29,1637
257,258,มอญ(ชุมชนบนพื้นที่สูง),,2019-01-19 12:43:29,1638
258,259,กะเหรี่ยง(ชุมชนบนพื้นที่สูง),,2019-01-19 12:43:29,1639
259,260,ปาเลสไตน์,PALESTINE,2019-01-19 12:43:29,1640
260,261,ติมอร์ตะวันออก,EAST TIMOR,2019-01-19 12:43:29,1641
261,262,สละสัญชาติไทย,THE RENUNCIATION OF THAI NATIO,2019-01-19 12:43:29,1642
262,263,เซอร์เบีย แอนด์ มอนเตเนโกร,SERBIA AND MONTENEGRO,2019-01-19 12:43:29,1643
263,264,กัมพูชา(แรงงาน),Combodian,2019-01-19 12:43:29,1644
264,265,พม่า(แรงงาน),of Myanmar,2019-01-19 12:43:29,1645
265,266,ลาว(แรงงาน),LAO,2019-01-19 12:43:29,1646
266,267,เซอร์เบียน,SERBIAN,2019-01-19 12:43:29,1647
267,268,มอนเตเนกริน,MONTENEGRIN,2019-01-19 12:43:29,1648
268,989,บุคคลที่ไม่มีสถานะทางทะเบียน,-,2019-01-19 12:43:29,1650
269,999,ไม่ระบุ,,2019-01-19 12:43:29,1651
270,270,กาบูเวร์ดี,,2019-06-06 10:56:57,1655
271,601,เบลเยี่ยม,bel,2019-07-31 09:46:30,1657
272,272,เซาท์ซูดาน,,2020-06-20 18:14:53,1683
